�������C�����ː����j�^�v���󋵏��
Date,Time,Cs137(Bq/L),Cs134(Bq/L),�S��(Bq/L)
2017/09/04,00:00,0.51,ND,-
2017/09/04,00:10,0.52,ND,-
2017/09/04,00:20,0.50,ND,-
2017/09/04,00:30,0.46,0.028,-
2017/09/04,00:40,0.45,0.032,-
2017/09/04,00:50,0.44,0.033,-
2017/09/04,01:00,0.55,ND,-
2017/09/04,01:10,0.55,ND,-
2017/09/04,01:20,0.57,ND,-
2017/09/04,01:30,0.58,ND,-
2017/09/04,01:40,0.59,ND,-
2017/09/04,01:50,0.61,ND,-
2017/09/04,02:00,0.61,ND,-
2017/09/04,02:10,0.60,ND,-
2017/09/04,02:20,0.60,ND,-
2017/09/04,02:30,0.61,ND,-
2017/09/04,02:40,0.62,ND,-
2017/09/04,02:50,0.60,ND,-
2017/09/04,03:00,0.62,ND,-
2017/09/04,03:10,0.62,ND,-
2017/09/04,03:20,0.63,ND,-
2017/09/04,03:30,0.64,ND,-
2017/09/04,03:40,0.64,ND,-
2017/09/04,03:50,0.65,ND,-
2017/09/04,04:00,0.64,ND,-
2017/09/04,04:10,0.67,ND,-
2017/09/04,04:20,0.65,ND,-
2017/09/04,04:30,0.65,ND,-
2017/09/04,04:40,0.67,ND,-
2017/09/04,04:50,0.69,ND,-
2017/09/04,05:00,0.72,ND,-
2017/09/04,05:10,0.73,ND,-
2017/09/04,05:20,0.74,ND,-
2017/09/04,05:30,0.75,ND,-
2017/09/04,05:40,0.73,ND,-
2017/09/04,05:50,0.72,ND,-
2017/09/04,06:00,0.59,0.047,-
2017/09/04,06:10,0.57,0.054,-
2017/09/04,06:20,0.57,0.051,-
2017/09/04,06:30,0.55,0.051,-
2017/09/04,06:40,0.55,0.049,-
2017/09/04,06:50,0.56,0.041,-
2017/09/04,07:00,0.67,ND,-
2017/09/04,07:10,0.66,ND,-
2017/09/04,07:20,0.67,ND,-
2017/09/04,07:30,0.67,ND,-
2017/09/04,07:40,0.69,ND,-
2017/09/04,07:50,0.71,ND,-
2017/09/04,08:00,0.72,ND,-
2017/09/04,08:10,0.74,ND,-
2017/09/04,08:20,0.75,ND,-
2017/09/04,08:30,0.77,ND,-
2017/09/04,08:40,0.79,ND,-
2017/09/04,08:50,0.78,ND,-
2017/09/04,09:00,0.78,ND,-
2017/09/04,09:10,0.77,ND,-
2017/09/04,09:20,0.78,ND,-
2017/09/04,09:30,0.79,ND,-
2017/09/04,09:40,0.78,ND,-
2017/09/04,09:50,0.78,ND,-
2017/09/04,10:00,0.79,ND,-
2017/09/04,10:10,0.80,ND,-
2017/09/04,10:20,0.80,ND,-
2017/09/04,10:30,0.78,ND,-
2017/09/04,10:40,0.76,ND,-
2017/09/04,10:50,0.76,ND,-
2017/09/04,11:00,0.74,ND,-
2017/09/04,11:10,0.71,ND,-
2017/09/04,11:20,0.68,ND,-
2017/09/04,11:30,0.66,ND,-
2017/09/04,11:40,0.65,ND,-
2017/09/04,11:50,0.61,ND,-
2017/09/04,12:00,0.58,ND,-
2017/09/04,12:10,0.57,ND,-
2017/09/04,12:20,0.55,ND,-
2017/09/04,12:30,0.53,ND,-
2017/09/04,12:40,0.53,ND,-
2017/09/04,12:50,0.53,ND,-
2017/09/04,13:00,0.53,ND,-
2017/09/04,13:10,0.52,ND,-
2017/09/04,13:20,0.44,0.026,-
2017/09/04,13:30,0.53,ND,-
2017/09/04,13:40,0.52,ND,-
2017/09/04,13:50,0.50,ND,-
2017/09/04,14:00,0.49,ND,-
2017/09/04,14:10,0.50,ND,-
2017/09/04,14:20,0.49,ND,-
2017/09/04,14:30,0.50,ND,-
2017/09/04,14:40,0.50,ND,-
2017/09/04,14:50,0.51,ND,-
2017/09/04,15:00,0.51,ND,-
2017/09/04,15:10,0.49,ND,-
2017/09/04,15:20,0.42,0.028,-
2017/09/04,15:30,0.49,ND,-
2017/09/04,15:40,0.49,ND,-
2017/09/04,15:50,0.48,ND,-
2017/09/04,16:00,0.50,ND,-
2017/09/04,16:10,0.51,ND,-
2017/09/04,16:20,0.50,ND,-
2017/09/04,16:30,0.53,ND,-
2017/09/04,16:40,0.55,ND,-
2017/09/04,16:50,0.58,ND,-
2017/09/04,17:00,0.55,ND,-
2017/09/04,17:10,0.46,0.034,-
2017/09/04,17:20,0.48,0.029,-
2017/09/04,17:30,0.47,0.028,-
2017/09/04,17:40,0.47,0.027,-
2017/09/04,17:50,0.47,0.029,-
2017/09/04,18:00,0.48,0.034,-
2017/09/04,18:10,0.54,ND,-
2017/09/04,18:20,0.59,ND,-
2017/09/04,18:30,0.60,ND,-
2017/09/04,18:40,0.61,ND,-
2017/09/04,18:50,0.61,ND,-
2017/09/04,19:00,0.63,ND,-
2017/09/04,19:10,0.63,ND,-
2017/09/04,19:20,0.64,ND,-
2017/09/04,19:30,0.66,ND,-
2017/09/04,19:40,0.67,ND,-
2017/09/04,19:50,0.67,ND,-
2017/09/04,20:00,0.67,ND,-
2017/09/04,20:10,0.70,ND,-
2017/09/04,20:20,0.72,ND,-
2017/09/04,20:30,0.73,ND,-
2017/09/04,20:40,0.75,ND,-
2017/09/04,20:50,0.76,ND,-
2017/09/04,21:00,0.79,ND,-
2017/09/04,21:10,0.80,ND,-
2017/09/04,21:20,0.81,ND,-
2017/09/04,21:30,0.69,0.051,-
2017/09/04,21:40,0.70,0.051,-
2017/09/04,21:50,0.80,0.028,-
2017/09/04,22:00,0.73,0.054,-
2017/09/04,22:10,0.74,0.048,-
2017/09/04,22:20,0.85,ND,-
2017/09/04,22:30,0.86,ND,-
2017/09/04,22:40,0.88,ND,-
2017/09/04,22:50,0.89,ND,-
2017/09/04,23:00,0.88,ND,-
2017/09/04,23:10,0.87,ND,-
2017/09/04,23:20,0.89,ND,-
2017/09/04,23:30,0.89,ND,-
2017/09/04,23:40,0.87,ND,-
2017/09/04,23:50,0.75,0.040,-
